Weather History for KLCK - October, 2012

Change the Weather History Date:

Sunday, October 7, 2012

  Actual Average Record
Temperature  
Mean Temperature 48 °F -  
Max Temperature 51 °F 68 °F 91 °F (2007)
Min Temperature 45 °F 46 °F 32 °F (2001)
Degree Days  
Heating Degree Days 17    
Moisture  
Dew Point 32 °F    
Average Humidity 55    
Maximum Humidity 64    
Minimum Humidity 45    
Precipitation  
Precipitation 0.00 in - - ()
Sea Level Pressure  
Sea Level Pressure 30.13 in    
Wind  
Wind Speed 6 mph (WNW)    
Max Wind Speed 14 mph    
Max Gust Speed 17 mph    
Visibility 10 miles    
Events Rain    
Averages and records for this station are not official NWS values.
T = Trace of Precipitation, MM = Missing Value Source: NWS Daily Summary

Daily Weather History Graph

Daily Weather History Graph

Search for Another Location

Airport or City:

Trip Planner

Search our weather history database for the weather conditions in past years. The results will help you decide how hot, cold, wet, or windy it might be!

Date:

Astronomy

Oct. 07, 2012 Rise Set
Actual Time 7:34 AM EDT 7:03 PM EDT
Civil Twilight 7:07 AM EDT 7:30 PM EDT
Nautical Twilight 6:36 AM EDT 8:01 PM EDT
Astronomical Twilight 6:04 AM EDT 8:33 PM EDT
Moon No Moon Rise 2:10 PM EDT (10/7)
Length of Visible Light 12h 23m
Length of Day
11h 29m
Waning Gibbous, 56% of the Moon is Illuminated
Oct 7
Waning Gibbous
Oct 8
Last Quarter
Oct 15
New
Oct 21
First Quarter
Oct 29
Full

Hourly Weather History & Observations

Time (EDT) Temp. Windchill Dew Point Humidity Pressure Visibility Wind Dir Wind Speed Gust Speed Precip Events Conditions
12:15 AM 49.1 °F - 31.5 °F 51% 30.13 in 10.0 mi NNW 8.1 mph - N/A   Scattered Clouds
12:35 AM 48.9 °F - 30.2 °F 48% 30.13 in 10.0 mi North 9.2 mph - N/A   Mostly Cloudy
12:55 AM 48.7 °F - 29.1 °F 47% 30.13 in 10.0 mi North 5.8 mph - N/A   Overcast
1:15 AM 48.7 °F - 28.8 °F 46% 30.11 in 10.0 mi North 4.6 mph - N/A   Overcast
1:35 AM 48.6 °F - 28.0 °F 45% 30.11 in 10.0 mi North 6.9 mph - N/A   Overcast
1:55 AM 48.6 °F - 27.9 °F 45% 30.11 in 10.0 mi NNE 5.8 mph - N/A   Overcast
2:15 AM 48.2 °F - 28.8 °F 47% 30.11 in 10.0 mi North 8.1 mph - N/A   Overcast
2:35 AM 48.2 °F - 29.7 °F 49% 30.10 in 10.0 mi NNE 6.9 mph - N/A   Overcast
2:55 AM 47.8 °F - 30.4 °F 51% 30.10 in 10.0 mi North 5.8 mph - N/A   Overcast
3:15 AM 47.7 °F - 30.9 °F 52% 30.10 in 10.0 mi NNW 5.8 mph - N/A   Overcast
3:35 AM 47.5 °F - 30.9 °F 53% 30.10 in 10.0 mi NNW 5.8 mph - N/A   Overcast
3:55 AM 47.3 °F - 31.1 °F 53% 30.11 in 10.0 mi NNW 4.6 mph - N/A   Overcast
4:15 AM 47.1 °F - 31.3 °F 54% 30.11 in 10.0 mi NW 3.5 mph - N/A   Overcast
4:35 AM 46.9 °F - 31.5 °F 55% 30.11 in 10.0 mi NNW 4.6 mph - N/A   Overcast
4:55 AM 46.8 °F - 31.6 °F 56% 30.10 in 10.0 mi North 4.6 mph - N/A   Overcast
5:15 AM 46.8 °F - 31.8 °F 56% 30.08 in 10.0 mi NNE 5.8 mph - N/A   Overcast
5:35 AM 46.6 °F - 32.0 °F 57% 30.09 in 10.0 mi North 6.9 mph - N/A   Overcast
5:55 AM 46.6 °F - 32.0 °F 57% 30.09 in 10.0 mi North 5.8 mph - N/A   Overcast
6:15 AM 46.6 °F - 32.0 °F 57% 30.10 in 10.0 mi North 4.6 mph - N/A   Overcast
6:35 AM 46.6 °F - 32.0 °F 57% 30.10 in 10.0 mi NW 3.5 mph - N/A   Overcast
6:55 AM 46.4 °F - 32.5 °F 59% 30.11 in 10.0 mi Calm Calm - N/A   Overcast
7:15 AM 46.4 °F - 32.5 °F 59% 30.11 in 10.0 mi Calm Calm - N/A   Overcast
7:35 AM 46.4 °F - 32.5 °F 59% 30.11 in 10.0 mi Calm Calm - N/A   Overcast
7:55 AM 46.4 °F - 32.9 °F 59% 30.11 in 10.0 mi Calm Calm - N/A   Overcast
8:15 AM 46.0 °F - 33.3 °F 61% 30.11 in 10.0 mi Calm Calm - N/A   Overcast
8:35 AM 46.0 °F - 32.9 °F 60% 30.12 in 10.0 mi Calm Calm - N/A   Overcast
8:55 AM 46.2 °F 45.0 °F 33.3 °F 61% 30.11 in 10.0 mi NW 3.5 mph - N/A   Overcast
9:15 AM 46.2 °F - 34.0 °F 62% 30.11 in 10.0 mi Calm Calm - N/A   Overcast
9:55 AM 46.4 °F - 34.2 °F 62% 30.13 in 10.0 mi Calm Calm - N/A   Overcast
10:15 AM 46.4 °F 43.5 °F 34.5 °F 63% 30.14 in 10.0 mi West 5.8 mph - N/A   Overcast
10:35 AM 46.4 °F 43.5 °F 34.7 °F 64% 30.14 in 10.0 mi West 5.8 mph - N/A   Overcast
10:55 AM 46.4 °F 45.2 °F 34.7 °F 64% 30.14 in 10.0 mi WSW 3.5 mph - N/A   Overcast
11:15 AM 46.6 °F - 34.9 °F 64% 30.14 in 10.0 mi WNW 6.9 mph - N/A   Overcast
11:35 AM 47.1 °F - 34.7 °F 62% 30.14 in 10.0 mi West 4.6 mph - N/A   Overcast
11:55 AM 47.7 °F - 34.3 °F 60% 30.14 in 10.0 mi West 6.9 mph - N/A   Overcast
12:15 PM 48.9 °F - 33.6 °F 56% 30.14 in 10.0 mi WNW 6.9 mph - N/A   Overcast
12:35 PM 50.2 °F - 32.7 °F 51% 30.15 in 10.0 mi WNW 8.1 mph - N/A   Overcast
12:55 PM 50.0 °F - 31.6 °F 49% 30.15 in 10.0 mi West 6.9 mph - N/A   Overcast
1:15 PM 50.7 °F - 31.5 °F 48% 30.14 in 10.0 mi WNW 5.8 mph - N/A   Overcast
1:35 PM 50.4 °F - 31.5 °F 48% 30.14 in 10.0 mi West 10.4 mph - N/A   Overcast
1:55 PM 50.0 °F - 31.3 °F 49% 30.14 in 10.0 mi WNW 9.2 mph - N/A   Overcast
2:15 PM 50.0 °F - 31.6 °F 49% 30.14 in 10.0 mi West 9.2 mph - N/A   Light Drizzle
2:35 PM 49.1 °F - 33.1 °F 54% 30.14 in 10.0 mi WNW 13.8 mph - N/A Rain Light Rain
2:55 PM 47.7 °F - 36.1 °F 64% 30.15 in 10.0 mi WNW 10.4 mph - N/A Rain Light Rain
3:15 PM 48.9 °F - 36.7 °F 63% 30.14 in 10.0 mi WNW 9.2 mph - N/A   Light Drizzle
3:35 PM 49.1 °F - 35.8 °F 60% 30.14 in 10.0 mi WNW 9.2 mph - N/A   Overcast
3:55 PM 49.3 °F - 34.9 °F 58% 30.14 in 10.0 mi WNW 8.1 mph - N/A   Overcast
4:15 PM 50.7 °F - 33.1 °F 51% 30.13 in 10.0 mi WSW 10.4 mph 17.3 mph N/A   Mostly Cloudy
4:35 PM 51.4 °F - 32.0 °F 47% 30.14 in 10.0 mi WNW 8.1 mph - N/A   Mostly Cloudy
4:55 PM 50.7 °F - 31.6 °F 48% 30.14 in 10.0 mi West 6.9 mph - N/A   Overcast
5:15 PM 50.5 °F - 30.4 °F 46% 30.13 in 10.0 mi West 6.9 mph - N/A   Overcast
5:35 PM 50.4 °F - 30.6 °F 47% 30.14 in 10.0 mi SW 6.9 mph - N/A   Overcast
5:55 PM 50.0 °F - 30.9 °F 48% 30.15 in 10.0 mi WSW 3.5 mph - N/A   Overcast
6:15 PM 50.0 °F - 30.9 °F 48% 30.15 in 10.0 mi WSW 4.6 mph - N/A   Overcast
6:35 PM 50.0 °F - 30.7 °F 48% 30.15 in 10.0 mi WSW 3.5 mph - N/A   Overcast
6:55 PM 49.6 °F - 30.7 °F 48% 30.15 in 10.0 mi West 5.8 mph - N/A   Overcast
7:15 PM 49.5 °F - 30.9 °F 49% 30.15 in 10.0 mi West 4.6 mph - N/A   Overcast
7:35 PM 49.3 °F - 30.7 °F 49% 30.15 in 10.0 mi WSW 3.5 mph - N/A   Overcast
7:55 PM 48.7 °F - 32.0 °F 52% 30.15 in 10.0 mi Calm Calm - N/A   Overcast
8:15 PM 48.6 °F - 32.4 °F 54% 30.16 in 10.0 mi WSW 3.5 mph - N/A   Overcast
8:35 PM 48.4 °F - 32.4 °F 54% 30.17 in 10.0 mi Calm Calm - N/A   Overcast
8:55 PM 48.4 °F - 32.4 °F 54% 30.17 in 10.0 mi West 3.5 mph - N/A   Overcast
9:15 PM 48.2 °F - 32.2 °F 54% 30.17 in 10.0 mi West 3.5 mph - N/A   Overcast
9:35 PM 47.7 °F - 32.5 °F 56% 30.18 in 10.0 mi Calm Calm - N/A   Overcast
9:55 PM 47.3 °F - 33.6 °F 59% 30.18 in 10.0 mi West 3.5 mph - N/A   Overcast
10:15 PM 47.3 °F - 33.4 °F 59% 30.18 in 10.0 mi WSW 3.5 mph - N/A   Overcast
10:35 PM 46.9 °F - 33.4 °F 59% 30.18 in 10.0 mi WSW 3.5 mph - N/A   Overcast
10:55 PM 46.6 °F - 33.3 °F 60% 30.18 in 10.0 mi West 4.6 mph - N/A   Overcast
11:15 PM 46.0 °F 43.9 °F 32.7 °F 60% 30.18 in 10.0 mi West 4.6 mph - N/A   Overcast
11:35 PM 45.5 °F - 32.9 °F 61% 30.18 in 10.0 mi Calm Calm - N/A   Mostly Cloudy
11:55 PM 45.1 °F - 32.7 °F 62% 30.18 in 10.0 mi Calm Calm - N/A   Scattered Clouds